sat.trackr.live / text

‹ back to catalog

RASSVET-3 7

NORAD 68366 · 2026-061G

PAYLOAD ACTIVE UNKNOWN

§ Identity

Operator
Country
CIS
Launch date
2026-03-23
Launch site
PLMSC
Launch vehicle
Mass (kg)
RCS (m²)

External: N2YO · Heavens-Above · Gunter

§ Orbital elements

Epoch: 2026-05-25T05:00:47.122272Z

Period
91.93 min
Inclination
82.2971°
Eccentricity
0.0003230
Mean motion
15.66414975 rev/d
Perigee alt
367.0 km
Apogee alt
371.4 km
Semi-major
6,747.3 km
B*
4.1291e-4
RAAN
38.3299°
Arg perigee
174.3474°
Mean anomaly
185.7822°
Rev number
990

§ Raw data

RASSVET-3 71 68366U 26061G   26145.20887873  .00043006  00000+0  41291-3 0  99972 68366  82.2971  38.3299 0003230 174.3474 185.7822 15.66414975  9901

JSON: /api/v1/satellites/68366 · /tle

For live sub-satellite position, see the globe view (requires WebGL).

§ Visibility from observer

Set your observer location to see the next 7 days of passes ≥ 10°. The values pass through the URL so the page stays shareable.

No JS? Fill the form by hand. The geolocation button needs JavaScript.